Weather History for KBRO - April, 2014

Change the Weather History Date:

Monday, April 7, 2014

  Actual Average Record
Temperature  
Mean Temperature 68 °F 73 °F  
Max Temperature 76 °F 83 °F 96 °F (1919)
Min Temperature 59 °F 64 °F 42 °F (2007)
Degree Days  
Heating Degree Days 0 0  
Month to date heating degree days 0 6  
Since 1 July heating degree days 814 552  
Cooling Degree Days 3 9  
Month to date cooling degree days 72 58  
Year to date cooling degree days 315 373  
Growing Degree Days 17 (Base 50)    
Moisture  
Dew Point 59 °F    
Average Humidity 77    
Maximum Humidity 97    
Minimum Humidity 57    
Precipitation  
Precipitation T in 0.05 in 0.95 in (1976)
Month to date precipitation T 0.35  
Year to date precipitation 2.22 3.93  
Sea Level Pressure  
Sea Level Pressure 29.86 in    
Wind  
Wind Speed 7 mph (NNE)    
Max Wind Speed 14 mph    
Max Gust Speed 18 mph    
Visibility 10 miles    
Events      
T = Trace of Precipitation, MM = Missing Value Source: NWS Daily Summary

Daily Weather History Graph

Daily Weather History Graph

Search for Another Location

Airport or City:

Trip Planner

Search our weather history database for the weather conditions in past years. The results will help you decide how hot, cold, wet, or windy it might be!

Date:

Astronomy

Apr. 07, 2014 Rise Set
Actual Time 7:14 AM CDT 7:49 PM CDT
Civil Twilight 6:51 AM CDT 8:12 PM CDT
Nautical Twilight 6:24 AM CDT 8:39 PM CDT
Astronomical Twilight 5:56 AM CDT 9:07 PM CDT
Moon 1:26 PM CDT (4/7) 2:11 AM CDT (4/7)
Length of Visible Light 13h 21m
Length of Day
12h 34m
First Quarter, 53% of the Moon is Illuminated
Apr 7
First Quarter
Apr 15
Full
Apr 22
Last Quarter
Apr 29
New
May 6
First Quarter

Hourly Weather History & Observations

Time (CDT) Temp. Dew Point Humidity Pressure Visibility Wind Dir Wind Speed Gust Speed Precip Events Conditions
12:53 AM 64.9 °F 61.0 °F 87% 29.78 in 10.0 mi North 10.4 mph 19.6 mph N/A   Clear
1:53 AM 64.0 °F 60.1 °F 87% 29.78 in 10.0 mi North 6.9 mph - N/A   Clear
2:53 AM 63.0 °F 60.1 °F 90% 29.78 in 10.0 mi North 6.9 mph - N/A   Clear
3:53 AM 60.1 °F 59.0 °F 96% 29.78 in 10.0 mi North 9.2 mph - N/A   Clear
4:08 AM 60.8 °F 57.2 °F 88% 29.78 in 10.0 mi NNW 12.7 mph - N/A   Mostly Cloudy
4:53 AM 60.1 °F 57.0 °F 90% 29.78 in 10.0 mi North 11.5 mph 18.4 mph N/A   Overcast
5:45 AM 60.8 °F 57.2 °F 88% 29.80 in 10.0 mi North 9.2 mph - N/A   Overcast
5:53 AM 60.1 °F 57.0 °F 90% 29.80 in 10.0 mi North 8.1 mph - N/A   Overcast
6:53 AM 60.1 °F 57.0 °F 90% 29.82 in 10.0 mi NNW 5.8 mph - N/A   Overcast
7:17 AM 59.0 °F 57.2 °F 94% 29.82 in 10.0 mi NNW 6.9 mph - N/A   Overcast
7:53 AM 59.0 °F 57.0 °F 93% 29.85 in 10.0 mi West 4.6 mph - N/A   Overcast
8:53 AM 60.1 °F 57.0 °F 90% 29.87 in 10.0 mi NW 6.9 mph - N/A   Overcast
9:53 AM 60.1 °F 55.9 °F 86% 29.89 in 10.0 mi Calm Calm - N/A   Overcast
10:41 AM 62.6 °F 55.4 °F 77% 29.91 in 10.0 mi NNE 4.6 mph - N/A   Overcast
10:53 AM 62.1 °F 55.9 °F 80% 29.91 in 10.0 mi Calm Calm - N/A   Overcast
11:26 AM 66.2 °F 57.2 °F 73% 29.91 in 10.0 mi Variable 5.8 mph - N/A   Scattered Clouds
11:53 AM 69.1 °F 57.0 °F 65% 29.91 in 10.0 mi Variable 5.8 mph - N/A   Clear
12:53 PM 73.9 °F 57.9 °F 57% 29.89 in 10.0 mi ENE 9.2 mph - N/A   Clear
1:53 PM 73.0 °F 59.0 °F 61% 29.88 in 10.0 mi NE 11.5 mph - N/A   Clear
2:53 PM 72.0 °F 57.9 °F 61% 29.86 in 10.0 mi NE 9.2 mph 16.1 mph N/A   Clear
3:53 PM 73.0 °F 59.0 °F 61% 29.84 in 10.0 mi NE 9.2 mph - N/A   Clear
4:53 PM 75.0 °F 60.1 °F 60% 29.82 in 10.0 mi NE 6.9 mph 16.1 mph N/A   Clear
5:53 PM 73.0 °F 60.1 °F 64% 29.83 in 10.0 mi NE 11.5 mph - N/A   Clear
6:04 PM 71.6 °F 60.8 °F 69% 29.84 in 10.0 mi ENE 12.7 mph - N/A   Partly Cloudy
6:53 PM 68.0 °F 60.1 °F 76% 29.85 in 10.0 mi ENE 10.4 mph - N/A   Clear
7:53 PM 66.0 °F 61.0 °F 84% 29.87 in 10.0 mi East 10.4 mph - N/A   Clear
8:53 PM 64.9 °F 61.0 °F 87% 29.90 in 10.0 mi East 4.6 mph - N/A   Clear
9:53 PM 63.0 °F 60.1 °F 90% 29.95 in 10.0 mi NNE 3.5 mph - N/A   Scattered Clouds
10:26 PM 64.4 °F 62.6 °F 94% 30.00 in 10.0 mi North 5.8 mph - N/A   Mostly Cloudy
10:53 PM 64.9 °F 62.1 °F 90% 30.03 in 10.0 mi North 6.9 mph - N/A   Scattered Clouds
11:53 PM 63.0 °F 61.0 °F 93% 30.04 in 10.0 mi NW 4.6 mph - N/A   Clear